星链-33588 (STARLINK-33588)

导读

STARLINK-33558是美国太空探索技术公司(SpaceX)星链星座的成员卫星,星链星座旨在为全球提供高速低延迟卫星互联网服务。该卫星于2025年1月21日由美国发射入轨,延续了星链大规模部署节奏,进一步扩充星座规模,助力提升全球网络覆盖密度与服务稳定性。

基本信息
目录编号:
62781
目录名称:
STARLINK-33588
国际标识:
2025-015Z
轨道中心:
EARTH
卫星名称:
星链-33588
卫星全名:
星链-33588 (STARLINK-33588)
卫星状态:
在轨 (已飞行509 天)
发射日期:
2025-01-21 UTC
国别 :
美国 (US)
星等 :
--
轨道信息
数据来源 国际轨道数据
星历时间: 2026-06-13T20:07:17+0800
19小时前
查看轨道信息
半长轴: 6840.852km
偏心率: 0.0001376
轨道倾角: 53.159°
近地点辐角 89.066°
升交点赤经 234.307°
平近点角 271.050°
近地点: 461.773km
远地点: 463.657km
周期: 93.848分钟
每日圈数: 15.343961
详细信息
固有亮度:
5
最大亮度:
2.5
卫星平台:
Starlink V1.0
覆盖范围:
全球
运营商:
太空探索技术公司
运营商所在国:
美国
制造商(研发单位):
太空探索技术公司
制造商所在国:
美国
使用方式:
暂无
卫星简介
Starlink 计划是 SpaceX 推出的全球卫星互联网项目,通过发射低轨道卫星,为全球尤其是偏远地区提供高速、低延迟的互联网服务。自 2019 年起,Starlink 已部署数千颗卫星,旨在缩小全球数字鸿沟,推动互联网普及。该项目还为军事、航空等行业提供通信支持,带来广泛经济效益。
2D轨道图
3D轨道图
轨道高度分析图
轨道倾角分析图
轨道综合分析图
查看轨道综合分析图